RLU287 ULLI-ULKK

Flight info

Callsign RLU287
Flight time N/A
Altitude 29000
Route N0420F290 KERIS P989 ARMAB
Aircraft CRJ1/M-J/L

Departure

Time 2026-05-05 18:22
Airport Pulkovo Airport (ULLI)

Arrival

Time N/A
Airport Kotlas Airport (ULKK)
Time Latitude Longitude Altitude Speed Heading
2026-05-05 18:06 59.79812 30.26299 80 ft 0 kts 285°
2026-05-05 18:13 59.79815 30.26278 84 ft 4 kts 285°
2026-05-05 18:13 59.79830 30.26192 82 ft 9 kts 313°
2026-05-05 18:14 59.79907 30.26201 73 ft 15 kts 17°
2026-05-05 18:14 59.80022 30.26268 77 ft 19 kts 16°
2026-05-05 18:14 59.80150 30.26341 66 ft 20 kts 15°
2026-05-05 18:14 59.80274 30.26407 73 ft 18 kts 15°
2026-05-05 18:15 59.80408 30.26458 67 ft 20 kts 16°
2026-05-05 18:15 59.80434 30.26627 72 ft 16 kts 108°
2026-05-05 18:15 59.80400 30.26855 67 ft 18 kts 107°
2026-05-05 18:15 59.80364 30.27094 73 ft 14 kts 107°
2026-05-05 18:16 59.80336 30.27287 73 ft 16 kts 106°
2026-05-05 18:16 59.80305 30.27504 73 ft 17 kts 106°
2026-05-05 18:16 59.80269 30.27744 69 ft 19 kts 106°
2026-05-05 18:16 59.80229 30.28006 70 ft 22 kts 108°
2026-05-05 18:17 59.80180 30.28317 70 ft 26 kts 107°
2026-05-05 18:17 59.80130 30.28670 73 ft 27 kts 105°
2026-05-05 18:17 59.80077 30.29030 73 ft 27 kts 107°
2026-05-05 18:17 59.80023 30.29392 69 ft 28 kts 105°
2026-05-05 18:18 59.79973 30.29720 68 ft 20 kts 105°
2026-05-05 18:18 59.79945 30.29997 66 ft 21 kts 78°
2026-05-05 18:18 59.80002 30.30154 71 ft 0 kts 47°
2026-05-05 18:20 59.80014 30.30180 71 ft 6 kts 47°
2026-05-05 18:20 59.80037 30.30229 67 ft 9 kts 47°
2026-05-05 18:20 59.80134 30.30175 69 ft 18 kts 296°
2026-05-05 18:20 59.80154 30.30055 69 ft 1 kts 285°
2026-05-05 18:21 59.80159 30.30021 71 ft 4 kts 285°
2026-05-05 18:21 59.80162 30.30000 67 ft 2 kts 285°
2026-05-05 18:21 59.80167 30.29965 69 ft 4 kts 285°
2026-05-05 18:21 59.80228 30.29554 70 ft 68 kts 286°
2026-05-05 18:22 59.80436 30.28167 67 ft 138 kts 287°
2026-05-05 18:22 59.80730 30.26176 628 ft 153 kts 285°
2026-05-05 18:22 59.81025 30.24252 1857 ft 138 kts 288°
2026-05-05 18:22 59.81336 30.22340 2622 ft 158 kts 286°
2026-05-05 18:23 59.81654 30.20096 3274 ft 178 kts 283°
2026-05-05 18:23 59.81999 30.17607 3928 ft 195 kts 283°
2026-05-05 18:23 59.82388 30.14986 4843 ft 200 kts 282°
2026-05-05 18:23 59.82800 30.12267 5611 ft 207 kts 281°
2026-05-05 18:24 59.83229 30.09522 6450 ft 211 kts 281°
2026-05-05 18:24 59.83657 30.06715 7278 ft 212 kts 279°
2026-05-05 18:24 59.83931 30.04839 7831 ft 213 kts 280°
2026-05-05 18:24 59.84741 30.02259 8607 ft 238 kts 314°
2026-05-05 18:25 59.86853 30.00635 9645 ft 259 kts 336°
2026-05-05 18:25 59.87429 30.00372 9876 ft 262 kts 338°
2026-05-05 18:25 59.90558 30.00425 11013 ft 288 kts
2026-05-05 18:25 59.91796 30.01507 11441 ft 301 kts 28°
2026-05-05 18:26 59.93243 30.04607 12087 ft 313 kts 62°
2026-05-05 18:26 59.93820 30.08773 12722 ft 312 kts 94°
2026-05-05 18:26 59.93413 30.12881 13350 ft 301 kts 121°
2026-05-05 18:26 59.92567 30.16738 13940 ft 304 kts 123°
2026-05-05 18:27 59.91694 30.20570 14507 ft 306 kts 124°
2026-05-05 18:27 59.90757 30.24413 15087 ft 309 kts 125°
2026-05-05 18:27 59.89824 30.28278 15662 ft 314 kts 123°
2026-05-05 18:27 59.88905 30.32294 16237 ft 319 kts 121°
2026-05-05 18:28 59.88325 30.41332 17341 ft 341 kts 93°
2026-05-05 18:28 59.88351 30.46077 17900 ft 344 kts 93°
2026-05-05 18:28 59.88313 30.50857 18400 ft 346 kts 97°
2026-05-05 18:29 59.88158 30.55673 18890 ft 348 kts 99°
2026-05-05 18:29 59.87962 30.60449 19361 ft 351 kts 99°
2026-05-05 18:29 59.87771 30.65354 19844 ft 355 kts 98°
2026-05-05 18:29 59.87611 30.70233 20318 ft 358 kts 97°
2026-05-05 18:30 59.87473 30.75222 20793 ft 361 kts 97°
2026-05-05 18:30 59.87322 30.80241 21249 ft 363 kts 98°
2026-05-05 18:30 59.87156 30.85228 21679 ft 366 kts 98°
2026-05-05 18:30 59.86990 30.90307 22135 ft 369 kts 97°
2026-05-05 18:31 59.86822 30.95429 22580 ft 371 kts 97°
2026-05-05 18:31 59.86651 31.00543 23003 ft 374 kts 98°
2026-05-05 18:31 59.86476 31.05742 23415 ft 377 kts 98°
2026-05-05 18:31 59.86299 31.10923 23771 ft 379 kts 98°
2026-05-05 18:32 59.86119 31.16185 24145 ft 380 kts 98°
2026-05-05 18:32 59.85936 31.21413 24505 ft 381 kts 97°
2026-05-05 18:32 59.85749 31.26696 24861 ft 383 kts 98°
2026-05-05 18:32 59.85559 31.32003 25214 ft 384 kts 98°
2026-05-05 18:33 59.85370 31.37269 25550 ft 385 kts 98°
2026-05-05 18:33 59.85174 31.42615 25893 ft 387 kts 98°
2026-05-05 18:33 59.84978 31.47950 26227 ft 388 kts 98°
2026-05-05 18:33 59.84776 31.53317 26558 ft 389 kts 98°
2026-05-05 18:34 59.84576 31.58674 26866 ft 391 kts 98°
2026-05-05 18:34 59.84367 31.64104 27178 ft 392 kts 98°
2026-05-05 18:34 59.84161 31.69470 27487 ft 394 kts 98°
2026-05-05 18:34 59.83950 31.74929 27772 ft 395 kts 98°
2026-05-05 18:35 59.83733 31.80404 28072 ft 397 kts 98°
2026-05-05 18:35 59.83517 31.85819 28361 ft 398 kts 98°
2026-05-05 18:35 59.83294 31.91340 28607 ft 401 kts 98°
2026-05-05 18:35 59.83069 31.96906 28704 ft 407 kts 98°
2026-05-05 18:36 59.82597 32.08352 28763 ft 424 kts 98°
2026-05-05 18:36 59.82103 32.20278 28779 ft 439 kts 98°
2026-05-05 18:37 59.81645 32.32431 28760 ft 445 kts 91°
2026-05-05 18:37 59.82022 32.38503 28766 ft 449 kts 78°
2026-05-05 18:37 59.82852 32.44522 28771 ft 451 kts 71°
2026-05-05 18:38 59.84860 32.56356 28768 ft 456 kts 72°
2026-05-05 18:38 59.86617 32.68520 28757 ft 460 kts 75°
2026-05-05 18:39 59.88356 32.80872 28755 ft 463 kts 74°
2026-05-05 18:39 59.90108 32.93241 28755 ft 467 kts 74°
2026-05-05 18:40 59.91852 33.05692 28751 ft 470 kts 75°
2026-05-05 18:40 59.93603 33.18297 28748 ft 472 kts 75°
2026-05-05 18:41 59.95345 33.30930 28743 ft 475 kts 75°
2026-05-05 18:41 59.97097 33.43648 28746 ft 477 kts 75°
2026-05-05 18:42 59.98854 33.56497 28740 ft 479 kts 75°
2026-05-05 18:42 60.00591 33.69334 28736 ft 480 kts 75°
2026-05-05 18:43 60.02323 33.82222 28738 ft 481 kts 75°
2026-05-05 18:43 60.04042 33.95146 28738 ft 483 kts 75°
2026-05-05 18:44 60.05753 34.08109 28735 ft 484 kts 75°
2026-05-05 18:44 60.07467 34.21204 28730 ft 485 kts 76°
2026-05-05 18:45 60.09154 34.34219 28728 ft 485 kts 76°
2026-05-05 18:45 60.10837 34.47299 28729 ft 486 kts 76°
2026-05-05 18:46 60.12517 34.60481 28731 ft 486 kts 76°
2026-05-05 18:46 60.14182 34.73652 28729 ft 487 kts 76°
2026-05-05 18:47 60.15830 34.86811 28724 ft 487 kts 76°
2026-05-05 18:47 60.17469 35.00014 28725 ft 488 kts 76°
2026-05-05 18:48 60.19084 35.13150 28726 ft 488 kts 76°
2026-05-05 18:48 60.20686 35.26332 28728 ft 487 kts 77°
2026-05-05 18:49 60.22310 35.39631 28724 ft 487 kts 76°
2026-05-05 18:49 60.23908 35.52787 28721 ft 486 kts 76°
2026-05-05 18:50 60.25494 35.65996 28719 ft 486 kts 77°
2026-05-05 18:50 60.27072 35.79277 28718 ft 485 kts 77°
2026-05-05 18:51 60.28110 35.88071 28717 ft 485 kts 77°